Estación Meteorológica Peña el Pijo (Robertgarden) [ 09/30/20 20:34:10 CEST ]

Fecha Hora Presion(HPa) Temp (°C) Humedad % Rocio (°C) Viento ( m/s) Direccion Lluvia 1Hora(mm) Lluvia 24H(mm) LLuvia Total(mm)
2020-Jan-02 01:09:24 1018.300 - - - - N     39.88
2020-Jan-02 02:11:54 1018.200 - - - - N     39.88
2020-Jan-02 03:09:06 1018.500 - - - - N     39.88
2020-Jan-02 04:09:05 1018.000 - - - - N     39.88
2020-Jan-02 05:09:26 1017.800 - - - - N     39.88
2020-Jan-02 06:09:12 1017.800 - - - - N     39.88
2020-Jan-02 07:08:57 1018.200 - - - - N     39.88
2020-Jan-02 08:08:48 1018.400 - - - - N     39.88
2020-Jan-02 09:09:16 1018.800 - - - - N     39.88
2020-Jan-02 10:09:13 1019.100 - - - - N     39.88
2020-Jan-02 11:09:24 1019.200 - - - - N     39.88
2020-Jan-02 12:08:56 1018.400 - - - - N     39.88
2020-Jan-02 13:09:12 1017.600 - - - - N     39.88
2020-Jan-02 14:09:09 1016.800 - - - - N     39.88
2020-Jan-02 15:09:40 1016.700 - - - - N     39.88
2020-Jan-02 16:01:40 1016.700 18.3 25 -2.3         39.88
2020-Jan-02 17:01:43 1017.100 15.0 29 -2.9         39.88
2020-Jan-02 18:01:29 1017.700 10.2 40 -2.8         39.88
2020-Jan-02 19:01:41 1018.100 6.5 50 -3.1         39.88
2020-Jan-02 20:02:03 1018.800 4.1 56 -4.0         39.88
2020-Jan-02 21:01:43 1018.800 2.5 60 -4.4         39.88
2020-Jan-02 22:01:39 1019.000 1.8 66 -3.9         39.88
2020-Jan-02 23:01:48 1019.300 1.3 68 -4.0         39.88

Temperatura Máxima:18°    Temperatura Mínima:
Presión Máxima:1019.300 Hpa    Presión Mínima:1016.700 Hpa


Volver